Hourly Data Report for January 18, 2017

All times are specified in Local Standard Time (LST). Add 1 hour to adjust for Daylight Saving Time where and when it is observed.

ST LEONARD CS
NEW BRUNSWICK

47°09'28.050" N
67°49'55.014" W
245.00 m
810I001
71019
WIY

Download Data

Hourly Data (January 2017)
Hourly Data Report for January 18, 2017
Temp Definition
°C
Dew Point Temp Definition
°C
Rel Hum Definition
%
Wind Dir Definition
10's deg

Wind Spd Definition
km/h
Visibility Definition
km
Stn Press Definition
kPa
Hmdx Definition


Wind Chill Definition


Weather Definition


TIME
00:00 -16.9 -18.8 85 6 7   99.52   -22 LegendNANA
01:00 -20.2 -22.1 85 2 1   99.47   -21 LegendNANA
02:00 -19.7 -21.0 90 7 5   99.44   -24 LegendNANA
03:00 -17.7 -19.0 89 6 7   99.45   -23 LegendNANA
04:00 -21.2 -23.0 85 34 4   99.41   -25 LegendNANA
05:00 -19.0 -20.5 88 6 6   99.41   -24 LegendNANA
06:00 -20.6 -23.0 81 4 6   99.40   -26 LegendNANA
07:00 -19.5 -21.1 87 5 6   99.36   -24 LegendNANA
08:00 -20.9 -22.6 86 5 6   99.34   -26 LegendNANA
09:00 -18.9 -20.4 87 8 10   99.32   -26 LegendNANA
10:00 -15.3 -17.2 85 9 7   99.32   -20 LegendNANA
11:00 -13.1 -16.0 79 8 6   99.31   -17 LegendNANA
12:00 -11.2 -14.8 74 13 12   99.22   -17 LegendNANA
13:00 -9.4 -14.3 68 13 15   99.15   -16 LegendNANA
14:00 -8.6 -14.2 64 13 17   99.08   -15 LegendNANA
15:00 -7.8 -13.8 62 13 16   98.98   -14 LegendNANA
16:00 -8.2 -13.8 64 13 13   98.99   -14 LegendNANA
17:00 -8.0 -13.2 66 12 9   98.98   -13 LegendNANA
18:00 -8.5 -13.2 69 13 10   98.94   -13 LegendNANA
19:00 -8.9 -13.3 70 14 11   98.91   -14 LegendNANA
20:00 -9.1 -13.1 73 14 12   98.88   -15 LegendNANA
21:00 -9.0 -12.7 74 14 15   98.82   -16 LegendNANA
22:00 -9.2 -12.2 78 13 11   98.81   -15 LegendNANA
23:00 -9.3 -12.1 80 13 12   98.76   -15 LegendNANA

Notes on Data Quality.

Legend

  • E = Estimated
  • M = Missing
  • NA = Not Available
  • ‡ = Partner data that is not subject to review by the National Climate Archives
Date modified: